Regional Weather Roundup
Issued by NWS

Home | Current Version | Previous Version | Graphics & Text | Print | Product List | Glossary On
Versions: 1 2 3 4 5 6 7 8 9 10 11 12 13 14 15 16 17 18 19 20 21 22 23 24 25 26 27
000
ASUS45 KTFX 211010
RWRMT
MONTANA REGIONAL WEATHER ROUNDUP
NATIONAL WEATHER SERVICE GREAT FALLS MT
400 AM MDT SAT OCT 21 2017

NOTE: "FAIR" INDICATES FEW OR NO CLOUDS BELOW 12000 FEET WITH NO
SIGNIFICANT WEATHER AND/OR OBSTRUCTIONS TO VISIBILITY.

MTZ001>007-043-211100-
WEST OF THE DIVIDE

CITY           SKY/WX    TMP DP  RH WIND       PRES   REMARKS
KALISPELL      MOCLDY    38  37  97 SE5       29.86R
MISSOULA       CLOUDY    39  34  82 S13       29.93R WCI  31
BUTTE          CLOUDY    32  26  78 CALM      29.89S
MULLAN PASS    LGT SNOW  27  25  92 VRB5      29.87R VSB 1
ANACONDA         N/A     36  23  60 W6        29.90S WCI  31
DEER LODGE       N/A     34  25  69 CALM      29.91R
EUREKA           N/A     37  36  93 MISG      29.84R
HAMILTON         N/A     36  32  87 CALM      29.94
LIBBY            N/A     37  37 100 CALM      29.86R
$$

MTZ008-052>055-211100-
SOUTHWEST MONTANA

CITY           SKY/WX    TMP DP  RH WIND       PRES   REMARKS
BOZEMAN        CLOUDY    36  26  67 S7        29.90R WCI  30
DILLON         CLOUDY    32  21  64 S9        29.92R WCI  24
W YELLOWSTONE  CLOUDY    25  21  86 SW9G15    29.94R WCI  15
ENNIS          CLOUDY    34  21  60 SE9       29.96S WCI  26
THREE FORKS      N/A     37  22  55 S5        29.90R
$$

MTZ009-010-012-014-046-048-049-054-211100-
EAST SLOPES AND CENTRAL MONTANA

CITY           SKY/WX    TMP DP  RH WIND       PRES   REMARKS
CUT BANK       PTCLDY    36  26  67 W17       29.72R WCI  26
GREAT FALLS    CLEAR     34  24  67 SW13      29.75R WCI  25
MALMSTROM AFB  CLEAR     39  26  60 SW21G26   29.75R WCI  29
HELENA         CLOUDY    42  24  49 SW12G20   29.85R
BOWMANS CRNR   MOCLDY    34  23  65 SW10      29.75R WCI  26
CHOTEAU          N/A     43  21  42 W23G32    29.71S
FAIRFIELD        N/A     40  25  56 W24       29.72R
POWER            N/A     32  26  77 SW10      29.73R WCI  24
RAYNESFORD       N/A     40  24  51 SW24G32   29.73R
ULM              N/A     40  25  54 SW13      29.76R
$$

MTZ011-013-016-021-045-047-050-051-211100-
NORTH CENTRAL MONTANA

CITY           SKY/WX    TMP DP  RH WIND       PRES   REMARKS
HAVRE          CLOUDY    41  38  89 W17       29.66R
LEWISTOWN      CLOUDY    40  24  53 W10       29.73R
N BAR RANCH      N/A     41  19  42 NW30G41   29.67R
CHINOOK          N/A     43  39  87 W20G25    29.62R
DENTON         MOCLDY    42  24  47 W22       29.68R
GEYSER         CLOUDY    36  24  62 NW14      29.72R WCI  27
GRASS RANGE    MOCLDY    43  22  42 W31G46    29.65R
JUDITH GAP     MOCLDY    37  20  50 W16G24    29.74R WCI  28
WINIFRED       MOCLDY    42  26  52 W8        29.69R
$$

MTZ017>020-022>027-061-062-211100-
NORTHEAST MONTANA

CITY           SKY/WX    TMP DP  RH WIND       PRES   REMARKS
GLASGOW        CLOUDY    45  38  76 W24G35    29.49R
JORDAN           N/A     46  32  58 W24G44    29.59R
SIDNEY         PTCLDY    48  37  65 W18G30    29.49R
WOLF POINT     MOCLDY    47  38  71 W21G36    29.47R
MALTA          MOCLDY    43  39  87 W26G37    29.56R
PLENTYWOOD       N/A     46  37  71 W15G23    29.38R
POPLAR           N/A     45  37  76 W16G24    29.48R
SCOBEY           N/A     44  32  63 W14       29.44R
$$

MTZ028>42-056>058-211100-
SOUTHCENTRAL AND SOUTHEAST MONTANA

CITY           SKY/WX    TMP DP  RH WIND       PRES   REMARKS
BAKER          CLOUDY    46  34  62 W23G29    29.59R
BILLINGS       MOCLDY    43  21  41 W25       29.74R
LIVINGSTON     CLOUDY    39  20  46 W21       29.83S WCI  29
MILES CITY     CLOUDY    45  31  58 W18       29.62R
BIG TIMBER     CLEAR     39  21  48 MISG      29.82S
FORSYTH          N/A     46  27  46 W17G26    29.64R
HARLOWTON      MOCLDY    36  21  55 W25G31    29.75S WCI  24
LAUREL           N/A     45  18  33 W26G36    29.76R
$$

REGIONAL REPORTS...DAKOTAS

CITY           SKY/WX    TMP DP  RH WIND       PRES   REMARKS
WILLISTON      CLEAR     46  37  71 S13       29.44R
MINOT          CLOUDY    57  34  41 SW16      29.30R
DICKINSON      PTCLDY    46  37  71 W22G31    29.48R
BEACH            N/A     45  34  65 W28G36    29.55S
CROSBY           N/A     48  34  57 W15       29.34R
TIOGA            N/A     46  39  76 W21       29.39R
WATFORD CITY     N/A     46  37  71 W18G32    29.45R
BISMARCK       PTCLDY    56  36  47 W13G22    29.41R
GRAND FORKS    CLEAR     66  59  78 S22G31    29.32S
FARGO          CLEAR     65  58  78 S21G36    29.38S
BUFFALO SD       N/A     48  32  53 W26G32    29.53S
RAPID CITY     CLOUDY    50  30  46 N32G40    29.58R
$$

REGIONAL REPORTS...WYOMING/IDAHO/WASHINGTON

CITY           SKY/WX    TMP DP  RH WIND       PRES   REMARKS
GILLETTE       MOCLDY    42  21  43 NW21G28   29.73R
SHERIDAN       CLEAR     37  20  50 NW9       29.74R WCI  30
BUFFALO WY     CLOUDY    43  11  27 NW16      29.75R
YELLOWSTONE LA   N/A     20  16  84 CALM      29.94R
IDAHO FALLS    MOCLDY    33  28  81 SW18      30.01R WCI  22
SALMON         LGT RAIN  37  32  82 S5        29.99R
BOISE          CLEAR     35  29  78 CALM      30.09R
SPOKANE        PTCLDY    36  34  92 S8        29.93R WCI  30
$$

REGIONAL REPORTS...ALBERTA

CITY           SKY/WX    TMP DP  RH WIND       PRES   REMARKS
EDMONTON       CLEAR     28  27  93 W8        29.58R WCI  20
CALGARY        CLEAR     30  28  93 S2        29.64R
LETHBRIDGE     CLEAR     37  28  70 W16G24    29.68R WCI  28
MEDICINE HAT   CLOUDY    41  37  87 W10       29.62R
$$

REGIONAL REPORTS...SASKATCHEWAN

CITY           SKY/WX    TMP DP  RH WIND       PRES   REMARKS
SWIFT CURRENT  CLOUDY    41  39  93 W25G32    29.41R
REGINA         MOCLDY    41  36  81 W12G17    29.29R
SASKATOON      MOCLDY    45  37  76 NW13      29.33S
$$




USA.gov is the U.S. government's official web portal to all federal, state and local government web resources and services.